{"data":{"norad_id":57341,"intl_designator":"2023-099P","name":"STARLINK-6377","alt_names":[],"object_type":"PAYLOAD","status":"ACTIVE","operator":null,"country":"US","launch_date":"2023-07-16","launch_site_code":"AFETR","launch_vehicle":null,"mission":null,"orbit_class":"UNKNOWN","rcs_meters":null,"size_class":null,"mass_kg":null,"dimensions":null,"purposes":["comms"],"wikipedia_slug":null,"has_3d_model":false,"image_url":null,"decayed_at":null,"tle_current":{"epoch":"2026-09-20T07:44:47.380704Z","epoch_age_seconds":139551,"freshness":"FRESH","line1":"1 57341U 23099P   26263.32277061  .00001297  00000+0  56643-4 0  9996","line2":"2 57341  43.0039 236.5750 0001470 275.9178  84.1506 15.27578612175809","mean_motion":15.27578612,"eccentricity":0.000147,"inclination_deg":43.0039,"raan_deg":236.575,"arg_perigee_deg":275.9178,"mean_anomaly_deg":84.1506,"bstar":5.6643e-5,"rev_number":17580,"period_min":94.266834367016,"perigee_km":482.04465724705,"apogee_km":484.0618471812,"semimajor_km":6861.1902522141,"source":"CELESTRAK","updated_at":"2026-09-21T09:00:33.598516Z"}}}